Location: Saint Louis
(38.6272°N, 90.1978°W)
Time: 19:05:55
(UTC-06:00)

Tiangong 1 - Visible Passes

Search period start: 26 January 2015 00:00
Search period end: 05 February 2015 00:00
Orbit: 356 x 374 km, 42.8° (Epoch: 26 January)

Date Brightness Start Highest point End Pass type
(mag) Time Alt. Az. Time Alt. Az. Time Alt. Az.
30 Jan 3.8 19:17:38 10° SSW 19:18:09 13° SSW 19:18:09 13° SSW visible
31 Jan 3.4 18:13:06 10° SSE 18:14:20 12° SE 18:15:30 10° ESE visible
31 Jan 4.5 19:47:12 10° WSW 19:47:19 11° WSW 19:47:19 11° WSW visible
01 Feb 1.8 18:41:22 10° SW 18:44:11 35° SSE 18:44:32 34° SE visible
02 Feb 1.9 19:11:07 10° WSW 19:13:26 48° WSW 19:13:26 48° WSW visible
03 Feb 1.4 18:04:59 10° SW 18:07:57 50° SSE 18:10:25 14° E visible
03 Feb 4.0 19:41:20 10° W 19:42:12 17° WNW 19:42:12 17° WNW visible
04 Feb 1.1 18:34:50 10° W 18:37:52 64° NNW 18:39:05 32° NE visible
